This is the latest recevied weather packets stored in our database for station/object K7FLA. If no packets are shown the sender has not sent any weather packets the latest 10 day(s).
| Time | Temp. | Humidity | Pressure | Rain* | Wind** | Luminosity | Snow |
|---|---|---|---|---|---|---|---|
| 1778111332 | 25° C | 34% | 1095.9 hPa | 0 mm | - | 336 W/m² | - |
| 1778111030 | 25° C | 34% | 1095.7 hPa | 0 mm | - | 351 W/m² | - |
| 1778110727 | 25° C | 36% | 1095.7 hPa | 0 mm | - | 369 W/m² | - |
| 1778110423 | 25° C | 35% | 1095.6 hPa | 0 mm | - | 388 W/m² | - |
| 1778110121 | 25.56° C | 35% | 1095.7 hPa | 0 mm | - | 403 W/m² | - |
| 1778109816 | 25.56° C | 35% | 1095.6 hPa | 0 mm | - | 420 W/m² | - |
| 1778109513 | 25.56° C | 34% | 1095.7 hPa | 0 mm | - | 440 W/m² | - |
| 1778109210 | 25.56° C | 35% | 1095.9 hPa | 0 mm | - | 456 W/m² | - |
| 1778108908 | 25.56° C | 34% | 1096.1 hPa | 0 mm | - | 474 W/m² | - |
| 1778108604 | 25.56° C | 35% | 1096 hPa | 0 mm | - | 487 W/m² | - |
| 1778108300 | 25.56° C | 34% | 1095.9 hPa | 0 mm | - | 505 W/m² | - |
| 1778107998 | 25.56° C | 34% | 1095.7 hPa | 0 mm | - | 519 W/m² | - |
| 1778107695 | 25.56° C | 34% | 1096 hPa | 0 mm | - | 533 W/m² | - |
| 1778107392 | 25.56° C | 34% | 1096 hPa | 0 mm | - | 549 W/m² | - |
| 1778107088 | 26.11° C | 32% | 1096 hPa | 0 mm | - | 561 W/m² | - |
| 1778106784 | 26.11° C | 33% | 1096 hPa | 0 mm | - | 575 W/m² | - |
| 1778106481 | 26.11° C | 35% | 1096.1 hPa | 0 mm | - | 587 W/m² | - |
| 1778106176 | 26.11° C | 33% | 1096.1 hPa | 0 mm | - | 600 W/m² | - |
| 1778105874 | 26.11° C | 34% | 1096.2 hPa | 0 mm | - | 615 W/m² | - |
| 1778105572 | 26.11° C | 33% | 1096.2 hPa | 0 mm | - | 627 W/m² | - |
| 1778105270 | 26.11° C | 33% | 1096.3 hPa | 0 mm | - | 639 W/m² | - |
| 1778104969 | 26.11° C | 33% | 1096.2 hPa | 0 mm | - | 651 W/m² | - |
| 1778104667 | 26.11° C | 33% | 1096.4 hPa | 0 mm | - | 666 W/m² | - |
| 1778104363 | 26.11° C | 34% | 1096.5 hPa | 0 mm | - | 677 W/m² | - |
| 1778104059 | 26.11° C | 32% | 1096.7 hPa | 0 mm | - | 689 W/m² | - |
* Rain latest hour (hover to see other rain measurements)
** Current wind speed in m/s (hover to see current wind gust speed)